This is the latest recevied weather packets stored in our database for station/object ZL1CTS-13. If no packets are shown the sender has not sent any weather packets the latest 10 day(s).
| Time | Temp. | Humidity | Pressure | Rain* | Wind** | Luminosity | Snow |
|---|---|---|---|---|---|---|---|
| 1778212204 | 18.89° C | 84% | 998.9 hPa | 0 mm | - | - | - |
| 1778211604 | 19.44° C | 84% | 998.6 hPa | 0 mm | - | - | - |
| 1778211004 | 18.89° C | 85% | 998.8 hPa | 0 mm | - | - | - |
| 1778210403 | 19.44° C | 85% | 999.1 hPa | 0 mm | - | - | - |
| 1778209804 | 19.44° C | 85% | 999.2 hPa | 0 mm | - | - | - |
| 1778209204 | 18.89° C | 85% | 999.2 hPa | 0 mm | - | - | - |
| 1778208603 | 18.89° C | 86% | 999.5 hPa | 0 mm | - | - | - |
| 1778208006 | 18.89° C | 88% | 999.7 hPa | 0 mm | - | - | - |
| 1778207405 | 18.89° C | 87% | 1000 hPa | 0 mm | - | - | - |
| 1778206803 | 18.89° C | 85% | 1000.2 hPa | 0 mm | - | - | - |
| 1778206204 | 19.44° C | 85% | 1000.3 hPa | 0 mm | - | - | - |
| 1778205604 | 19.44° C | 86% | 1000.2 hPa | 0 mm | - | - | - |
| 1778205004 | 18.89° C | 85% | 1000.6 hPa | 0 mm | - | - | - |
| 1778204403 | 18.89° C | 85% | 1000.5 hPa | 0 mm | - | - | - |
| 1778203804 | 18.89° C | 85% | 1000.7 hPa | 0 mm | - | - | - |
| 1778203204 | 18.89° C | 85% | 1001.1 hPa | 0 mm | - | - | - |
| 1778202604 | 18.89° C | 85% | 1001.6 hPa | 0 mm | - | - | - |
| 1778202004 | 18.89° C | 83% | 1001.7 hPa | 0 mm | - | - | - |
| 1778201404 | 20° C | 79% | 1001.7 hPa | 0 mm | - | - | - |
| 1778200803 | 20° C | 77% | 1001.8 hPa | 0 mm | - | - | - |
| 1778200204 | 20° C | 76% | 1002.4 hPa | 0 mm | - | - | - |
| 1778199604 | 20.56° C | 75% | 1002.8 hPa | 0 mm | - | - | - |
| 1778199003 | 20.56° C | 76% | 1002.7 hPa | 0 mm | - | - | - |
| 1778198406 | 20° C | 77% | 1002.9 hPa | 0 mm | - | - | - |
| 1778197804 | 20° C | 79% | 1003.2 hPa | 0 mm | - | - | - |
* Rain latest hour (hover to see other rain measurements)
** Current wind speed in m/s (hover to see current wind gust speed)